{"data":{"norad_id":62154,"epoch":"2026-05-24T20:18:11.309472Z","epoch_age_seconds":91816,"freshness":"FRESH","line1":"1 62154U 24224R   26144.84596423  .00026011  00000+0  95162-3 0  9995","line2":"2 62154  43.0027  88.3103 0001453 273.8573  86.2113 15.27572488 84010","mean_motion":15.27572488,"eccentricity":0.0001453,"inclination_deg":43.0027,"raan_deg":88.3103,"arg_perigee_deg":273.8573,"mean_anomaly_deg":86.2113,"bstar":0.00095162,"rev_number":8401,"period_min":94.267212280403,"perigee_km":482.07465615417,"apogee_km":484.06852337035,"semimajor_km":6861.2085897623,"source":"CELESTRAK","updated_at":"2026-05-25T13:38:19.594724Z"}}